When you browse on this site, cookies collect data to enhance your experience and personalize the content and advertising you see.
Visit our Privacy Policy to learn more. By continuing to use the site, you agree to this use of cookies and data.
  • în România
  • Lista ţărilor
  • Pe 7 zile
  • Temperatura apei
  • Meteo pe hartă
  • Widget-uri
  • user-avatar
    Intrare

    Meteo pe oră la Mayrhofen

    Astăzi, 22 August, Joi

    Timp Temperatura Precipitaţii Vânt Presiune Umiditate
    00:00 +10°C° 0 mm 1 m/s 623 mmHg 94%
    01:00 +10°C° 0 mm 1 m/s 623 mmHg 91%
    02:00 +10°C° 0 mm 1 m/s 623 mmHg 91%
    03:00 +9°C° 0 mm 1 m/s 623 mmHg 92%
    04:00 +8°C° 0 mm 0 m/s 622 mmHg 92%
    05:00 +9°C° 0 mm 0 m/s 623 mmHg 89%
    06:00 +10°C° 0 mm 0 m/s 624 mmHg 87%
    07:00 +12°C° 0 mm 1 m/s 624 mmHg 85%
    08:00 +14°C° 0.1 mm 1 m/s 625 mmHg 78%
    09:00 +16°C° 0.1 mm 1 m/s 625 mmHg 71%
    10:00 +19°C° 0.1 mm 1 m/s 626 mmHg 64%
    11:00 +19°C° 0.7 mm 1 m/s 626 mmHg 65%
    12:00 +19°C° 0.7 mm 1 m/s 626 mmHg 65%
    13:00 +20°C° 0.7 mm 1 m/s 626 mmHg 66%
    14:00 +19°C° 1.3 mm 1 m/s 626 mmHg 68%
    15:00 +19°C° 1.3 mm 1 m/s 625 mmHg 70%
    16:00 +19°C° 1.3 mm 1 m/s 625 mmHg 72%
    17:00 +16°C° 0.7 mm 1 m/s 625 mmHg 78%
    18:00 +15°C° 0.7 mm 1 m/s 624 mmHg 83%
    19:00 +13°C° 0.7 mm 1 m/s 624 mmHg 88%
    20:00 +13°C° 0.1 mm 1 m/s 624 mmHg 89%
    21:00 +11°C° 0.1 mm 0 m/s 624 mmHg 89%
    22:00 +10°C° 0.1 mm 0 m/s 624 mmHg 89%
    23:00 +9°C° 0 mm 0 m/s 624 mmHg 89%

    Mâine, 23 August, Vineri

    Timp Temperatura Precipitaţii Vânt Presiune Umiditate
    00:00 +9°C° 0 mm 0 m/s 623 mmHg 89%
    01:00 +8°C° 0 mm 0 m/s 623 mmHg 89%
    02:00 +8°C° 0 mm 0 m/s 623 mmHg 89%
    03:00 +8°C° 0 mm 0 m/s 623 mmHg 89%
    04:00 +8°C° 0 mm 0 m/s 622 mmHg 89%
    05:00 +9°C° 0 mm 0 m/s 623 mmHg 87%
    06:00 +11°C° 0 mm 0 m/s 623 mmHg 84%
    07:00 +12°C° 0 mm 0 m/s 624 mmHg 82%
    08:00 +14°C° 0.2 mm 0 m/s 625 mmHg 76%
    09:00 +18°C° 0.2 mm 1 m/s 626 mmHg 70%
    10:00 +19°C° 0.2 mm 1 m/s 626 mmHg 64%
    11:00 +20°C° 0.9 mm 1 m/s 626 mmHg 64%
    12:00 +20°C° 0.9 mm 1 m/s 626 mmHg 63%
    13:00 +20°C° 0.9 mm 1 m/s 626 mmHg 63%
    14:00 +20°C° 0.9 mm 1 m/s 625 mmHg 66%
    15:00 +19°C° 0.9 mm 1 m/s 625 mmHg 69%
    16:00 +19°C° 0.9 mm 1 m/s 625 mmHg 73%
    17:00 +18°C° 0.6 mm 1 m/s 624 mmHg 78%
    18:00 +15°C° 0.6 mm 1 m/s 624 mmHg 83%
    19:00 +14°C° 0.6 mm 1 m/s 623 mmHg 89%
    20:00 +13°C° 0.1 mm 1 m/s 623 mmHg 88%
    21:00 +12°C° 0.1 mm 1 m/s 623 mmHg 88%
    22:00 +12°C° 0.1 mm 1 m/s 623 mmHg 88%
    23:00 +11°C° 0 mm 1 m/s 622 mmHg 88%

    Poimâine, 24 August, Sâmbătă

    Timp Temperatura Precipitaţii Vânt Presiune Umiditate
    00:00 +11°C° 0 mm 1 m/s 622 mmHg 88%
    01:00 +10°C° 0 mm 1 m/s 622 mmHg 88%
    02:00 +10°C° 0 mm 1 m/s 622 mmHg 88%
    03:00 +10°C° 0 mm 1 m/s 621 mmHg 87%
    04:00 +10°C° 0 mm 1 m/s 621 mmHg 86%
    05:00 +11°C° 0 mm 1 m/s 622 mmHg 84%
    06:00 +12°C° 0 mm 1 m/s 622 mmHg 82%
    07:00 +13°C° 0 mm 1 m/s 623 mmHg 80%
    08:00 +16°C° 0 mm 1 m/s 624 mmHg 70%
    09:00 +19°C° 0 mm 1 m/s 624 mmHg 61%
    10:00 +21°C° 0 mm 1 m/s 625 mmHg 52%
    11:00 +22°C° 0.1 mm 1 m/s 625 mmHg 50%
    12:00 +22°C° 0.1 mm 1 m/s 625 mmHg 47%
    13:00 +23°C° 0.1 mm 1 m/s 625 mmHg 45%
    14:00 +21°C° 0.4 mm 2 m/s 625 mmHg 50%
    15:00 +21°C° 0.4 mm 2 m/s 624 mmHg 55%
    16:00 +20°C° 0.4 mm 2 m/s 624 mmHg 60%
    17:00 +19°C° 0.7 mm 1 m/s 623 mmHg 69%
    18:00 +15°C° 0.7 mm 0 m/s 622 mmHg 77%
    19:00 +13°C° 0.7 mm 0 m/s 621 mmHg 86%
    20:00 +12°C° 0.3 mm 0 m/s 621 mmHg 87%
    21:00 +13°C° 0.3 mm 1 m/s 621 mmHg 87%
    22:00 +12°C° 0.3 mm 1 m/s 621 mmHg 87%
    23:00 +12°C° 0 mm 1 m/s 621 mmHg 87%

    25 August, Duminică

    Timp Temperatura Precipitaţii Vânt Presiune Umiditate
    00:00 +11°C° 0 mm 1 m/s 621 mmHg 87%
    01:00 +11°C° 0 mm 1 m/s 621 mmHg 87%
    02:00 +10°C° 0 mm 1 m/s 620 mmHg 88%
    03:00 +10°C° 0 mm 1 m/s 620 mmHg 88%
    04:00 +10°C° 0 mm 1 m/s 620 mmHg 88%
    05:00 +11°C° 0 mm 1 m/s 621 mmHg 86%
    06:00 +12°C° 0 mm 0 m/s 621 mmHg 83%
    07:00 +13°C° 0 mm 0 m/s 622 mmHg 80%
    08:00 +15°C° 0.1 mm 0 m/s 623 mmHg 73%
    09:00 +17°C° 0.1 mm 0 m/s 623 mmHg 66%
    10:00 +21°C° 0.1 mm 1 m/s 624 mmHg 59%
    11:00 +21°C° 1.1 mm 1 m/s 624 mmHg 59%
    12:00 +22°C° 1.1 mm 1 m/s 624 mmHg 58%
    13:00 +22°C° 1.1 mm 1 m/s 624 mmHg 58%
    14:00 +21°C° 1.4 mm 1 m/s 623 mmHg 64%
    15:00 +20°C° 1.4 mm 1 m/s 623 mmHg 70%
    16:00 +19°C° 1.4 mm 1 m/s 623 mmHg 76%
    17:00 +18°C° 0.7 mm 1 m/s 622 mmHg 80%
    18:00 +15°C° 0.7 mm 1 m/s 622 mmHg 84%
    19:00 +13°C° 0.7 mm 0 m/s 621 mmHg 88%
    20:00 +13°C° 0 mm 1 m/s 621 mmHg 89%
    21:00 +12°C° 0 mm 1 m/s 621 mmHg 90%
    22:00 +11°C° 0 mm 1 m/s 621 mmHg 90%
    23:00 +11°C° 0 mm 1 m/s 621 mmHg 90%

    26 August, Luni

    Timp Temperatura Precipitaţii Vânt Presiune Umiditate
    00:00 +10°C° 0 mm 1 m/s 621 mmHg 90%
    01:00 +10°C° 0 mm 1 m/s 621 mmHg 90%
    02:00 +10°C° 0 mm 1 m/s 621 mmHg 90%
    03:00 +10°C° 0 mm 1 m/s 620 mmHg 90%
    04:00 +10°C° 0 mm 1 m/s 620 mmHg 90%
    05:00 +11°C° 0 mm 1 m/s 621 mmHg 88%
    06:00 +11°C° 0 mm 0 m/s 622 mmHg 85%
    07:00 +13°C° 0 mm 0 m/s 622 mmHg 83%
    08:00 +16°C° 0 mm 1 m/s 623 mmHg 75%
    09:00 +19°C° 0 mm 1 m/s 624 mmHg 67%
    10:00 +21°C° 0 mm 1 m/s 625 mmHg 59%
    11:00 +21°C° 0.5 mm 1 m/s 625 mmHg 57%
    12:00 +22°C° 0.5 mm 1 m/s 625 mmHg 54%
    13:00 +23°C° 0.5 mm 1 m/s 625 mmHg 52%
    14:00 +22°C° 1.1 mm 1 m/s 624 mmHg 58%
    15:00 +21°C° 1.1 mm 1 m/s 624 mmHg 64%
    16:00 +20°C° 1.1 mm 1 m/s 623 mmHg 71%
    17:00 +19°C° 1.4 mm 1 m/s 623 mmHg 76%
    18:00 +15°C° 1.4 mm 0 m/s 622 mmHg 82%
    19:00 +14°C° 1.4 mm 0 m/s 622 mmHg 87%
    20:00 +13°C° 0.4 mm 0 m/s 622 mmHg 88%
    21:00 +12°C° 0.4 mm 0 m/s 622 mmHg 88%
    22:00 +13°C° 0.4 mm 1 m/s 622 mmHg 89%
    23:00 +12°C° 0 mm 1 m/s 622 mmHg 89%

    27 August, Marţi

    Timp Temperatura Precipitaţii Vânt Presiune Umiditate
    00:00 +12°C° 0 mm 1 m/s 621 mmHg 89%
    01:00 +11°C° 0 mm 1 m/s 621 mmHg 90%
    02:00 +11°C° 0 mm 1 m/s 621 mmHg 90%
    03:00 +11°C° 0 mm 1 m/s 620 mmHg 90%
    04:00 +11°C° 0 mm 1 m/s 620 mmHg 90%
    05:00 +12°C° 0 mm 1 m/s 621 mmHg 88%
    06:00 +13°C° 0 mm 1 m/s 621 mmHg 87%
    07:00 +14°C° 0 mm 1 m/s 622 mmHg 85%
    08:00 +16°C° 0 mm 1 m/s 622 mmHg 76%
    09:00 +19°C° 0 mm 1 m/s 623 mmHg 67%
    10:00 +22°C° 0 mm 1 m/s 624 mmHg 58%
    11:00 +22°C° 0.1 mm 1 m/s 624 mmHg 54%
    12:00 +23°C° 0.1 mm 1 m/s 624 mmHg 50%
    13:00 +24°C° 0.1 mm 1 m/s 624 mmHg 46%
    14:00 +24°C° 0.3 mm 2 m/s 623 mmHg 48%
    15:00 +23°C° 0.3 mm 2 m/s 623 mmHg 51%
    16:00 +23°C° 0.3 mm 2 m/s 622 mmHg 53%
    17:00 +19°C° 0.5 mm 2 m/s 622 mmHg 63%
    18:00 +17°C° 0.5 mm 2 m/s 621 mmHg 74%
    19:00 +15°C° 0.5 mm 2 m/s 620 mmHg 84%
    20:00 +14°C° 0.1 mm 2 m/s 620 mmHg 86%
    21:00 +14°C° 0.1 mm 2 m/s 620 mmHg 87%
    22:00 +13°C° 0.1 mm 2 m/s 620 mmHg 89%
    23:00 +13°C° 0 mm 2 m/s 620 mmHg 89%
    Arată mai mult